Volver al catálogo

ATLAS 5 CENTAUR DEB

LostHEO
NORAD 55852·DEBRIS·🇺🇸 United States

Lanzado Oct 17, 2018 desde Cape Canaveral Space Force Station

Loading…

Próximos Pases (próximas 24 horas)

TLE

ObsoletoSource: Space-Track

Época: May 6, 2024, 03:30 UTC

1 55852U 18079HE  24127.14625535 -.00000049  00000-0  00000+0 0  9990
2 55852  12.3328  75.2299 4526346 262.6109  45.5959  2.06031400 10347

Sigue ATLAS 5 CENTAUR DEB en tiempo real con AllMySat

Download on the App Store